Content
SEND FEEDBACK

Daily
Averages
Monthly
Summary
United States of America

WILMINGTON, KANSAS


Home > North America > United States > Kansas
Elevation: 350 meters     Latitude: 38 48N     Longitude: 095 50W

WEATHER
 
SELECT A DAY
Number of Records: 187,427;   Date Range: 1/1/95 - 8/28/14
 
SHARE

PRINT THIS DATA

[ ← Previous Day ]
WEATHER ALMANAC - 23 JANUARY, 2013
[ Next Day → ]
[ °F ]   °C
Weather ElementAverageHighLow
Temperature-1.6 °C9.4 °C (2:53 pm)-10.6 °C (5:53 am)
Dewpoint-8.9 °C-5 °C (12:53 pm)-13.3 °C (5:53 am)
Humidity60.9 %81 % (5:53 am)36 % (2:53 pm)
Barometer1025.4 hPa1031.2 hPa (11:53 pm)1022.4 hPa (2:53 pm)
Wind Speed11.1 km/h25.9 km/h (8:53 pm)
Wind Gust35.2 km/h (8:53 pm)
Weather ElementAverage
Visibility16.1 km
Wind DirectionESE (117 °)

Weather ElementTotal
Precipitation---
Heating Degree Days18.9 (Base 18.3)
Averaged from 23 records on 23 January, 2013
WEATHER CONDITIONS BREAKOUT
WIND DIRECTION BREAKOUT
WEATHER BY HOUR - 23 JANUARY, 2013
[ °F ]   °C
Local TimeTemperatureDewpointHumidityBarometerVisibilityWind DirectionWind SpeedGust SpeedPrecipitationEventsConditions
1:53 AM-8.9 °C-12.2 °C77 %1025.4 hPa16.1 kmCalmClear
2:53 AM-9.4 °C-12.8 °C77 %1025.1 hPa16.1 kmCalmClear
3:53 AM-9.4 °C-12.2 °C80 %1024.7 hPa16.1 kmESE (110°)5.6 km/hClear
4:53 AM-10 °C-12.8 °C80 %1024.4 hPa16.1 kmCalmClear
5:53 AM-10.6 °C-13.3 °C81 %1024.7 hPa16.1 kmSSE (150°)5.6 km/hClear
6:53 AM-10.6 °C-13.3 °C81 %1024.4 hPa16.1 kmSSE (150°)5.6 km/hClear
7:53 AM-10 °C-12.8 °C80 %1024.4 hPa16.1 kmSSE (150°)7.4 km/hClear
8:53 AM-6.1 °C-10 °C74 %1024.4 hPa16.1 kmSouth (170°)5.6 km/hClear
9:53 AM-2.2 °C-7.2 °C69 %1024.4 hPa16.1 kmSW (220°)9.3 km/hClear
10:53 AM1.7 °C-5.6 °C59 %1024.7 hPa16.1 kmSW (220°)7.4 km/hClear
11:53 AM4.4 °C-5.6 °C49 %1024.4 hPa16.1 kmVariable5.6 km/hClear
12:53 PM7.2 °C-5 °C42 %1023 hPa16.1 kmCalmClear
1:53 PM8.3 °C-5.6 °C37 %1022.7 hPa16.1 kmNorth (350°)14.8 km/hClear
2:53 PM9.4 °C-5 °C36 %1022.4 hPa16.1 kmNNW (340°)16.7 km/hClear
3:53 PM8.3 °C-5.6 °C37 %1023 hPa16.1 kmNorth (10°)13 km/hClear
4:53 PM6.1 °C-6.1 °C42 %1024 hPa16.1 kmNorth (10°)18.5 km/hClear
5:53 PM3.9 °C-6.7 °C46 %1026.1 hPa16.1 kmNorth (360°)18.5 km/hClear
6:53 PM1.7 °C-7.2 °C52 %1027.1 hPa16.1 kmNNE (20°)16.7 km/hClear
7:53 PM0 °C-7.2 °C59 %1028.1 hPa16.1 kmNorth (360°)16.7 km/hClear
8:53 PM-1.1 °C-8.3 °C59 %1028.8 hPa16.1 kmNNE (20°)25.9 km/h35.2 km/hClear
9:53 PM-2.2 °C-9.4 °C58 %1029.8 hPa16.1 kmNNE (20°)24.1 km/hClear
10:53 PM-3.3 °C-10 °C60 %1029.8 hPa16.1 kmNNE (20°)20.4 km/hClear
11:53 PM-4.4 °C-10 °C65 %1031.2 hPa16.1 kmNorth (10°)18.5 km/hClear
Hourly data recorded from KFOE, located 0 kilometers away from Wilmington, Kansas







STORIES FROM OUR PARTNERS